KINDAKUN POINT, BC current weather conditions

sailwx.info

Wind from 320 at 9 knots

Air temperature 9.2° C
Dewpoint 5.2° C

Last reported at 2014-Nov-24 23:00 UTC.
Time now 2014-Nov-25 00:46 UTC

Location: N 53°19' W 132°46'.
View on Google Maps.

See reports from other nearby stations

  
Tides and Currents Weather Stations Pressure Air Temp Water Temp Dewpoint Dewpoint Depression Visibility Wind Speed Wind Dir Waves Ship Positions
date/time (UTC)wind fromknots sea level pressurealtimeterstation pressurevisibilityair tempwater tempwave heightnotes
2014-Nov-24 23:00 320 9 9.2
2014-Nov-24 22:00 300 12 9.2
2014-Nov-24 21:00 300 14 9.3
2014-Nov-24 20:00 300 12 9.1
2014-Nov-24 19:00 250 4 9.0
2014-Nov-24 18:00 300 7 9.1
2014-Nov-24 17:00 320 8 9.0
2014-Nov-24 16:00 300 9 8.7
2014-Nov-24 15:00 310 13 8.6
2014-Nov-24 14:00 310 19 8.8
2014-Nov-24 13:00 280 13 gusting 20 8.9
2014-Nov-24 12:00 250 7 10.0
2014-Nov-24 11:00 250 11 9.9
2014-Nov-24 10:00 230 15 10.0
2014-Nov-24 09:00 190 27 gusting 36 9.0
2014-Nov-24 08:00 170 28 gusting 38 8.8
2014-Nov-24 07:00 170 25 gusting 32 8.2
2014-Nov-24 06:00 180 27 gusting 35 8.5
2014-Nov-24 05:00 180 23 gusting 32 10.0
2014-Nov-24 04:00 180 22 gusting 33 9.4
2014-Nov-24 03:00 180 18 gusting 24 9.9
2014-Nov-24 02:00 200 19 10.0
2014-Nov-24 01:00 200 14 9.8
2014-Nov-24 00:00 220 14 10.0
2014-Nov-23 23:00 230 12 9.8
2014-Nov-23 22:00 240 9 9.9
2014-Nov-23 21:00 270 8 9.4
2014-Nov-23 20:00 290 9 10.1
2014-Nov-23 19:00 270 13 9.5
2014-Nov-23 18:00 300 15 9.4
2014-Nov-23 17:00 300 18 9.2
2014-Nov-23 16:00 310 14 8.9
2014-Nov-23 15:00 300 18 8.8
2014-Nov-23 14:00 310 20 8.7
2014-Nov-23 13:00 310 24 9.0
2014-Nov-23 12:00 320 19 8.0
2014-Nov-23 11:00 330 20 7.1
2014-Nov-23 10:00 330 22 gusting 27 6.8
2014-Nov-23 09:00 320 19 gusting 24 5.5
2014-Nov-23 08:00 320 14 6.2
2014-Nov-23 07:00 280 4 6.2
2014-Nov-23 06:00 190 9 gusting 15 6.2
2014-Nov-23 05:00 190 9 7.0
2014-Nov-23 04:00 130 6 8.0
2014-Nov-23 03:00 160 13 gusting 18 9.0
2014-Nov-23 02:00 190 17 gusting 21 9.5
2014-Nov-23 01:00 190 20 9.7
2014-Nov-23 00:00 190 13 9.4